This is the latest recevied weather packets stored in our database for station/object KA9CBS. If no packets are shown the sender has not sent any weather packets the latest 10 day(s).
| Time | Temp. | Humidity | Pressure | Rain* | Wind** | Luminosity | Snow |
|---|---|---|---|---|---|---|---|
| 1788010281 | 22.78° C | 82% | 1023.2 hPa | 0 mm | - | 175 W/m² | - |
| 1788009981 | 22.78° C | 83% | 1023 hPa | 0 mm | - | 154 W/m² | - |
| 1788009674 | 22.22° C | 85% | 1023.1 hPa | 0 mm | - | 152 W/m² | - |
| 1788009374 | 21.67° C | 87% | 1022.9 hPa | 0 mm | - | 134 W/m² | - |
| 1788009074 | 21.67° C | 88% | 1022.9 hPa | 0 mm | - | 122 W/m² | - |
| 1788008769 | 21.11° C | 90% | 1022.6 hPa | 0 mm | - | 76 W/m² | - |
| 1788008469 | 20.56° C | 93% | 1022.7 hPa | 0 mm | - | 79 W/m² | - |
| 1788008165 | 20° C | 96% | 1022.8 hPa | 0 mm | - | 73 W/m² | - |
| 1788007864 | 19.44° C | 96% | 1022.8 hPa | 0 mm | - | 66 W/m² | - |
| 1788007564 | 18.89° C | 98% | 1022.8 hPa | 0 mm | - | 66 W/m² | - |
| 1788007263 | 18.89° C | 99% | 1022.6 hPa | 0 mm | - | 61 W/m² | - |
| 1788006962 | 17.78° C | 99% | 1022.4 hPa | 0 mm | - | 48 W/m² | - |
| 1788006656 | 17.78° C | 99% | 1022.5 hPa | 0 mm | - | 42 W/m² | - |
| 1788006352 | 17.22° C | 99% | 1022.7 hPa | 0 mm | - | 40 W/m² | - |
| 1788006050 | 17.22° C | 99% | 1022.5 hPa | 0 mm | - | 38 W/m² | - |
| 1788005744 | 16.67° C | 99% | 1022.4 hPa | 0 mm | - | 35 W/m² | - |
| 1788005440 | 16.67° C | 99% | 1022.3 hPa | 0 mm | - | 31 W/m² | - |
| 1788005138 | 16.67° C | 99% | 1022.1 hPa | 0 mm | - | 26 W/m² | - |
| 1788004833 | 16.67° C | 99% | 1022 hPa | 0 mm | - | 21 W/m² | - |
| 1788004532 | 16.67° C | 99% | 1022.3 hPa | 0 mm | - | 17 W/m² | - |
| 1788004227 | 16.67° C | 99% | 1022.1 hPa | 0 mm | - | 15 W/m² | - |
| 1788003926 | 16.67° C | 99% | 1022.2 hPa | 0 mm | - | 11 W/m² | - |
| 1788003621 | 16.67° C | 99% | 1022 hPa | 0 mm | - | 8 W/m² | - |
| 1788003320 | 16.67° C | 99% | 1022.1 hPa | 0 mm | - | 5 W/m² | - |
| 1788003016 | 16.67° C | 99% | 1021.9 hPa | 0 mm | - | 3 W/m² | - |
* Rain latest hour (hover to see other rain measurements)
** Current wind speed in m/s (hover to see current wind gust speed)